Tracking 29591 objects as of 19-Sep-2024
HD Live streaming from Space Station
objects crossing your sky now

FENGYUN 2E DEB

Track FENGYUN 2E DEB now!


NORAD ID: 40987
Int'l Code: 2008-066D
Perigee: 35,009.9 km
Apogee: 36,556.1 km
Inclination: 8.8 °
Period: 1,435.5 minutes
Semi major axis: 42153 km
RCS: Unknown
Launch date: December 23, 2008
Source: People's Republic of China (PRC)
Launch site: Xichang Space Center, China (XSC)

Note: This is SATELLITE DEBRIS
Your satellite tracking list
Your tracking list is empty




NASA's NSSDC Master Catalog

Two Line Element Set (TLE):
1 40987U 08066D   24245.85704479 -.00000447  00000-0  00000+0 0  9994
2 40987   8.8364  49.8146 0183401 359.5717   0.5485  1.00310083 55878
Source of the keplerian elements: AFSPC